Time,TemperatureF,DewpointF,PressureIn,WindDirection,WindDirectionDegrees,WindSpeedMPH,WindSpeedGustMPH,Humidity,HourlyPrecipIn,Conditions,Clouds,dailyrainin,SolarRadiationWatts/m^2,SoftwareType,DateUTC
2013-12-29 00:00:00,75.8,72.0,29.98,East,98,11.0,14.0,88,0.00,,OVC030,0.01,0.00,VWS V15.00,2013-12-29 05:00:00,
2013-12-29 00:01:00,75.8,72.0,29.98,SE,130,6.0,14.0,88,0.00,,OVC030,0.01,0.00,VWS V15.00,2013-12-29 05:01:00,
2013-12-29 00:02:00,75.8,72.0,29.99,SE,130,4.0,11.0,88,0.00,,OVC030,0.00,0.00,VWS V15.00,2013-12-29 05:02:00,
2013-12-29 00:05:00,75.3,71.5,30.00,ESE,115,0.0,11.0,88,0.00,,SCT030,0.00,0.00,VWS V15.00,2013-12-29 05:05:00,
2013-12-29 00:07:00,75.7,71.9,29.99,ESE,103,8.0,9.0,88,0.00,,OVC030,0.00,0.00,VWS V15.00,2013-12-29 05:07:00,
2013-12-29 00:10:00,75.4,71.6,30.00,SE,135,4.0,9.0,88,0.00,,SCT030,0.00,0.00,VWS V15.00,2013-12-29 05:10:00,
2013-12-29 00:12:00,75.6,71.8,29.99,East,96,5.0,12.0,88,0.00,,OVC030,0.00,0.00,VWS V15.00,2013-12-29 05:12:00,
2013-12-29 00:15:00,75.4,71.6,29.99,SE,144,9.0,11.0,88,0.00,,SCT030,0.00,0.00,VWS V15.00,2013-12-29 05:15:00,
2013-12-29 00:17:00,75.5,71.7,30.00,ESE,119,3.0,11.0,88,0.00,,OVC030,0.00,0.00,VWS V15.00,2013-12-29 05:17:00,
2013-12-29 00:20:00,75.4,71.6,29.98,SE,128,3.0,9.0,88,0.00,,SCT030,0.00,0.00,VWS V15.00,2013-12-29 05:20:00,
2013-12-29 00:21:00,75.5,71.7,30.00,SE,146,2.0,4.0,88,0.00,,OVC030,0.00,0.00,VWS V15.00,2013-12-29 05:21:00,
2013-12-29 00:25:00,75.5,71.7,29.98,ESE,120,3.0,13.0,88,0.00,,SCT030,0.00,0.00,VWS V15.00,2013-12-29 05:25:00,
2013-12-29 00:26:00,75.4,71.9,30.00,SE,136,11.0,11.0,89,0.00,,OVC030,0.00,0.00,VWS V15.00,2013-12-29 05:26:00,
2013-12-29 00:30:00,75.5,71.7,29.98,SE,130,4.0,11.0,88,0.00,,SCT030,0.00,0.00,VWS V15.00,2013-12-29 05:30:00,
2013-12-29 00:31:00,75.3,71.8,30.00,SSE,165,1.0,6.0,89,0.00,,OVC030,0.00,0.00,VWS V15.00,2013-12-29 05:31:00,
2013-12-29 00:35:00,75.5,71.7,29.98,ESE,121,6.0,15.0,88,0.00,,SCT030,0.00,0.00,VWS V15.00,2013-12-29 05:35:00,
2013-12-29 00:36:00,75.3,71.8,30.00,ESE,118,1.0,6.0,89,0.00,,OVC030,0.00,0.00,VWS V15.00,2013-12-29 05:36:00,
2013-12-29 00:40:00,75.6,71.8,29.98,SSE,151,5.0,12.0,88,0.00,,SCT030,0.00,0.00,VWS V15.00,2013-12-29 05:40:00,
2013-12-29 00:41:00,75.2,71.7,30.00,SE,137,4.0,5.0,89,0.00,,OVC030,0.00,0.00,VWS V15.00,2013-12-29 05:41:00,
2013-12-29 00:45:00,75.7,71.9,29.98,SE,134,2.0,14.0,88,0.00,,SCT030,0.00,0.00,VWS V15.00,2013-12-29 05:45:00,
2013-12-29 00:46:00,75.2,71.7,30.00,SSE,156,3.0,5.0,89,0.00,,OVC030,0.00,0.00,VWS V15.00,2013-12-29 05:46:00,
2013-12-29 00:50:00,75.6,71.8,29.98,SE,136,3.0,12.0,88,0.00,,SCT030,0.00,0.00,VWS V15.00,2013-12-29 05:50:00,
2013-12-29 00:51:00,75.2,71.7,30.00,SE,146,3.0,9.0,89,0.00,,OVC030,0.00,0.00,VWS V15.00,2013-12-29 05:51:00,
2013-12-29 00:55:00,75.6,71.8,29.97,SE,128,3.0,13.0,88,0.00,,SCT030,0.00,0.00,VWS V15.00,2013-12-29 05:55:00,
2013-12-29 00:56:00,75.2,71.4,30.00,SE,140,4.0,4.0,88,0.00,,OVC030,0.00,0.00,VWS V15.00,2013-12-29 05:56:00,
2013-12-29 01:00:00,75.6,71.8,29.97,SE,127,7.0,13.0,88,0.00,,SCT030,0.00,0.00,VWS V15.00,2013-12-29 06:00:00,
2013-12-29 01:01:00,75.3,71.5,30.00,SE,135,4.0,9.0,88,0.00,,OVC030,0.00,0.00,VWS V15.00,2013-12-29 06:01:00,
2013-12-29 01:05:00,75.6,71.8,29.97,SE,136,1.0,11.0,88,0.00,,SCT030,0.00,0.00,VWS V15.00,2013-12-29 06:05:00,
2013-12-29 01:06:00,75.4,71.6,30.00,SE,131,5.0,7.0,88,0.00,,OVC030,0.00,0.00,VWS V15.00,2013-12-29 06:06:00,
2013-12-29 01:10:00,75.6,71.8,29.97,SE,130,1.0,10.0,88,0.00,,SCT030,0.00,0.00,VWS V15.00,2013-12-29 06:10:00,
2013-12-29 01:11:00,75.4,71.6,30.00,SE,141,3.0,11.0,88,0.00,,OVC030,0.00,0.00,VWS V15.00,2013-12-29 06:11:00,
2013-12-29 01:15:00,75.6,71.8,29.97,ESE,117,9.0,10.0,88,0.00,,SCT030,0.00,0.00,VWS V15.00,2013-12-29 06:15:00,
2013-12-29 01:16:00,75.4,71.6,29.99,SSE,165,4.0,9.0,88,0.00,,OVC030,0.00,0.00,VWS V15.00,2013-12-29 06:16:00,
2013-12-29 01:20:00,75.6,71.8,29.97,SSE,156,3.0,15.0,88,0.00,,SCT030,0.00,0.00,VWS V15.00,2013-12-29 06:20:00,
2013-12-29 01:21:00,75.4,71.6,29.98,East,101,9.0,11.0,88,0.00,,OVC030,0.00,0.00,VWS V15.00,2013-12-29 06:21:00,
2013-12-29 01:25:00,75.6,71.8,29.97,East,98,4.0,13.0,88,0.00,,SCT030,0.00,0.00,VWS V15.00,2013-12-29 06:25:00,
2013-12-29 01:26:00,75.5,71.7,29.98,SE,125,7.0,7.0,88,0.00,,OVC030,0.00,0.00,VWS V15.00,2013-12-29 06:26:00,
2013-12-29 01:30:00,75.6,71.8,29.97,ESE,106,2.0,11.0,88,0.00,,SCT030,0.00,0.00,VWS V15.00,2013-12-29 06:30:00,
2013-12-29 01:31:00,75.5,71.7,29.98,SE,142,3.0,10.0,88,0.00,,OVC030,0.00,0.00,VWS V15.00,2013-12-29 06:31:00,
2013-12-29 01:35:00,75.6,71.8,29.97,SE,141,4.0,9.0,88,0.00,,SCT030,0.00,0.00,VWS V15.00,2013-12-29 06:35:00,
2013-12-29 01:36:00,75.6,71.8,29.98,East,91,4.0,12.0,88,0.00,,OVC030,0.00,0.00,VWS V15.00,2013-12-29 06:36:00,
2013-12-29 01:40:00,75.5,71.7,29.97,SE,138,0.0,13.0,88,0.00,,SCT030,0.00,0.00,VWS V15.00,2013-12-29 06:40:00,
2013-12-29 01:41:00,75.6,71.8,29.98,SE,138,7.0,14.0,88,0.00,,OVC030,0.00,0.00,VWS V15.00,2013-12-29 06:41:00,
2013-12-29 01:45:00,75.5,71.7,29.97,SE,132,3.0,12.0,88,0.00,,SCT030,0.00,0.00,VWS V15.00,2013-12-29 06:45:00,
2013-12-29 01:46:00,75.7,71.9,29.98,SSE,155,3.0,11.0,88,0.00,,OVC030,0.00,0.00,VWS V15.00,2013-12-29 06:46:00,
2013-12-29 01:50:00,75.5,71.7,29.97,East,88,4.0,7.0,88,0.00,,SCT030,0.00,0.00,VWS V15.00,2013-12-29 06:50:00,
2013-12-29 01:51:00,75.7,71.9,29.98,SSE,154,6.0,6.0,88,0.00,,OVC030,0.00,0.00,VWS V15.00,2013-12-29 06:51:00,
2013-12-29 01:55:00,75.5,71.7,29.96,SE,130,3.0,6.0,88,0.00,,SCT030,0.00,0.00,VWS V15.00,2013-12-29 06:55:00,
2013-12-29 01:56:00,75.6,71.8,29.97,SE,142,9.0,13.0,88,0.00,,OVC030,0.00,0.00,VWS V15.00,2013-12-29 06:56:00,
2013-12-29 02:00:00,75.5,71.7,29.96,SSE,157,1.0,9.0,88,0.00,,SCT030,0.00,0.00,VWS V15.00,2013-12-29 07:00:00,
2013-12-29 02:01:00,75.6,71.8,29.97,SE,132,5.0,9.0,88,0.00,,OVC030,0.00,0.00,VWS V15.00,2013-12-29 07:01:00,
2013-12-29 02:05:00,75.4,71.6,29.95,ESE,121,3.0,9.0,88,0.00,,SCT030,0.00,0.00,VWS V15.00,2013-12-29 07:05:00,
2013-12-29 02:06:00,75.6,71.8,29.97,SE,144,2.0,7.0,88,0.00,,OVC030,0.00,0.00,VWS V15.00,2013-12-29 07:06:00,
2013-12-29 02:10:00,75.3,71.5,29.95,ESE,123,2.0,8.0,88,0.00,,SCT030,0.00,0.00,VWS V15.00,2013-12-29 07:10:00,
2013-12-29 02:11:00,75.6,71.8,29.97,ENE,76,6.0,9.0,88,0.00,,OVC030,0.00,0.00,VWS V15.00,2013-12-29 07:11:00,
2013-12-29 02:15:00,75.3,71.5,29.95,ESE,117,6.0,7.0,88,0.00,,SCT030,0.00,0.00,VWS V15.00,2013-12-29 07:15:00,
2013-12-29 02:16:00,75.6,71.8,29.97,SE,138,5.0,9.0,88,0.00,,OVC030,0.00,0.00,VWS V15.00,2013-12-29 07:16:00,
2013-12-29 02:20:00,75.3,71.5,29.94,ESE,123,4.0,9.0,88,0.00,,SCT030,0.00,0.00,VWS V15.00,2013-12-29 07:20:00,
2013-12-29 02:21:00,75.6,71.8,29.97,SSE,148,4.0,4.0,88,0.00,,OVC030,0.00,0.00,VWS V15.00,2013-12-29 07:21:00,
2013-12-29 02:25:00,75.3,71.5,29.95,SE,139,4.0,9.0,88,0.00,,SCT030,0.00,0.00,VWS V15.00,2013-12-29 07:25:00,
2013-12-29 02:26:00,75.6,71.8,29.97,SSE,152,6.0,11.0,88,0.00,,OVC030,0.00,0.00,VWS V15.00,2013-12-29 07:26:00,
2013-12-29 02:30:00,75.3,71.5,29.95,SE,132,1.0,9.0,88,0.00,,SCT030,0.00,0.00,VWS V15.00,2013-12-29 07:30:00,
2013-12-29 02:31:00,75.6,71.8,29.97,SE,137,5.0,7.0,88,0.00,,OVC030,0.00,0.00,VWS V15.00,2013-12-29 07:31:00,
2013-12-29 02:35:00,75.3,71.5,29.95,East,101,1.0,6.0,88,0.00,,SCT030,0.00,0.00,VWS V15.00,2013-12-29 07:35:00,
2013-12-29 02:36:00,75.5,71.7,29.97,SSE,150,7.0,7.0,88,0.00,,OVC030,0.00,0.00,VWS V15.00,2013-12-29 07:36:00,
2013-12-29 02:40:00,75.3,71.5,29.94,ESE,122,3.0,6.0,88,0.00,,SCT030,0.00,0.00,VWS V15.00,2013-12-29 07:40:00,
2013-12-29 02:41:00,75.5,71.7,29.97,SE,132,10.0,10.0,88,0.00,,OVC030,0.00,0.00,VWS V15.00,2013-12-29 07:41:00,
2013-12-29 02:45:00,75.3,71.5,29.94,SE,134,0.0,7.0,88,0.00,,SCT030,0.00,0.00,VWS V15.00,2013-12-29 07:45:00,
2013-12-29 02:46:00,75.5,71.7,29.97,SSE,147,2.0,3.0,88,0.00,,OVC030,0.00,0.00,VWS V15.00,2013-12-29 07:46:00,
2013-12-29 02:50:00,75.3,71.5,29.95,SE,140,6.0,10.0,88,0.00,,SCT030,0.00,0.00,VWS V15.00,2013-12-29 07:50:00,
2013-12-29 02:51:00,75.5,71.7,29.96,SSE,153,4.0,5.0,88,0.00,,OVC030,0.00,0.00,VWS V15.00,2013-12-29 07:51:00,
2013-12-29 02:55:00,75.4,71.6,29.94,SE,138,1.0,10.0,88,0.00,,SCT030,0.00,0.00,VWS V15.00,2013-12-29 07:55:00,
2013-12-29 02:56:00,75.5,71.7,29.96,SE,130,2.0,3.0,88,0.00,,OVC030,0.00,0.00,VWS V15.00,2013-12-29 07:56:00,
2013-12-29 03:00:00,75.4,71.6,29.94,SE,136,8.0,9.0,88,0.00,,SCT030,0.00,0.00,VWS V15.00,2013-12-29 08:00:00,
2013-12-29 03:01:00,75.4,71.6,29.96,SE,136,5.0,7.0,88,0.00,,OVC030,0.00,0.00,VWS V15.00,2013-12-29 08:01:00,
2013-12-29 03:05:00,75.5,71.7,29.93,SE,131,10.0,12.0,88,0.00,,SCT030,0.00,0.00,VWS V15.00,2013-12-29 08:05:00,
2013-12-29 03:06:00,75.4,71.6,29.95,ESE,118,1.0,4.0,88,0.00,,OVC030,0.00,0.00,VWS V15.00,2013-12-29 08:06:00,
2013-12-29 03:10:00,75.5,72.0,29.93,SE,138,10.0,12.0,89,0.00,,SCT030,0.00,0.00,VWS V15.00,2013-12-29 08:10:00,
2013-12-29 03:11:00,75.4,71.6,29.95,ESE,123,4.0,7.0,88,0.00,,OVC030,0.00,0.00,VWS V15.00,2013-12-29 08:11:00,
2013-12-29 03:15:00,75.5,72.0,29.93,East,99,5.0,12.0,89,0.00,,SCT030,0.00,0.00,VWS V15.00,2013-12-29 08:15:00,
2013-12-29 03:16:00,75.3,71.5,29.95,SE,132,2.0,6.0,88,0.00,,OVC030,0.00,0.00,VWS V15.00,2013-12-29 08:16:00,
2013-12-29 03:20:00,75.6,72.1,29.93,SE,128,2.0,12.0,89,0.00,,SCT030,0.00,0.00,VWS V15.00,2013-12-29 08:20:00,
2013-12-29 03:21:00,75.3,71.5,29.95,ESE,105,4.0,6.0,88,0.00,,OVC030,0.00,0.00,VWS V15.00,2013-12-29 08:21:00,
2013-12-29 03:25:00,75.6,72.1,29.93,ESE,116,5.0,13.0,89,0.00,,SCT030,0.00,0.00,VWS V15.00,2013-12-29 08:25:00,
2013-12-29 03:26:00,75.3,71.5,29.95,SE,132,9.0,9.0,88,0.00,,OVC030,0.00,0.00,VWS V15.00,2013-12-29 08:26:00,
2013-12-29 03:30:00,75.6,72.1,29.92,SE,146,5.0,14.0,89,0.00,,SCT030,0.00,0.00,VWS V15.00,2013-12-29 08:30:00,
2013-12-29 03:31:00,75.3,71.5,29.95,SE,133,2.0,2.0,88,0.00,,OVC030,0.00,0.00,VWS V15.00,2013-12-29 08:31:00,
2013-12-29 03:35:00,75.6,71.8,29.92,SE,142,7.0,12.0,88,0.00,,SCT030,0.00,0.00,VWS V15.00,2013-12-29 08:35:00,
2013-12-29 03:36:00,75.3,71.5,29.95,ESE,109,1.0,2.0,88,0.00,,OVC030,0.00,0.00,VWS V15.00,2013-12-29 08:36:00,
2013-12-29 03:40:00,75.6,71.8,29.92,SE,124,6.0,11.0,88,0.00,,SCT030,0.00,0.00,VWS V15.00,2013-12-29 08:40:00,
2013-12-29 03:41:00,75.3,71.5,29.95,ESE,122,0.0,3.0,88,0.00,,OVC030,0.00,0.00,VWS V15.00,2013-12-29 08:41:00,
2013-12-29 03:45:00,75.6,71.8,29.92,SE,136,4.0,13.0,88,0.00,,SCT030,0.00,0.00,VWS V15.00,2013-12-29 08:45:00,
2013-12-29 03:46:00,75.3,71.5,29.94,ESE,102,3.0,5.0,88,0.00,,OVC030,0.00,0.00,VWS V15.00,2013-12-29 08:46:00,
2013-12-29 03:50:00,75.7,71.9,29.92,SSE,148,1.0,12.0,88,0.00,,SCT030,0.00,0.00,VWS V15.00,2013-12-29 08:50:00,
2013-12-29 03:51:00,75.4,71.6,29.94,SE,128,5.0,10.0,88,0.00,,OVC030,0.00,0.00,VWS V15.00,2013-12-29 08:51:00,
2013-12-29 03:55:00,75.7,71.9,29.93,SE,138,4.0,12.0,88,0.00,,SCT030,0.00,0.00,VWS V15.00,2013-12-29 08:55:00,
2013-12-29 03:56:00,75.4,71.6,29.94,ESE,118,2.0,4.0,88,0.00,,OVC030,0.00,0.00,VWS V15.00,2013-12-29 08:56:00,
2013-12-29 04:00:00,75.7,71.9,29.93,SE,144,2.0,9.0,88,0.00,,SCT030,0.00,0.00,VWS V15.00,2013-12-29 09:00:00,
2013-12-29 04:01:00,75.4,71.6,29.94,SSE,148,3.0,8.0,88,0.00,,OVC030,0.00,0.00,VWS V15.00,2013-12-29 09:01:00,
2013-12-29 04:05:00,75.7,71.9,29.94,SSE,164,1.0,9.0,88,0.00,,SCT030,0.00,0.00,VWS V15.00,2013-12-29 09:05:00,
2013-12-29 04:06:00,75.5,71.7,29.93,SSE,148,6.0,12.0,88,0.00,,OVC030,0.00,0.00,VWS V15.00,2013-12-29 09:06:00,
2013-12-29 04:10:00,75.7,71.9,29.93,SE,139,2.0,9.0,88,0.00,,SCT030,0.00,0.00,VWS V15.00,2013-12-29 09:10:00,
2013-12-29 04:11:00,75.5,72.0,29.93,SE,142,5.0,10.0,89,0.00,,OVC030,0.00,0.00,VWS V15.00,2013-12-29 09:11:00,
2013-12-29 04:15:00,75.8,72.3,29.94,SE,144,4.0,7.0,89,0.00,,SCT030,0.00,0.00,VWS V15.00,2013-12-29 09:15:00,
2013-12-29 04:16:00,75.5,72.0,29.93,SE,142,3.0,7.0,89,0.00,,OVC030,0.00,0.00,VWS V15.00,2013-12-29 09:16:00,
2013-12-29 04:20:00,75.8,72.3,29.94,SE,145,2.0,7.0,89,0.00,,SCT030,0.00,0.00,VWS V15.00,2013-12-29 09:20:00,
2013-12-29 04:21:00,75.6,72.1,29.93,SE,132,3.0,7.0,89,0.00,,OVC030,0.00,0.00,VWS V15.00,2013-12-29 09:21:00,
2013-12-29 04:25:00,75.8,72.3,29.94,SE,136,4.0,11.0,89,0.00,,SCT030,0.00,0.00,VWS V15.00,2013-12-29 09:25:00,
2013-12-29 04:26:00,75.6,72.1,29.92,SE,136,2.0,5.0,89,0.00,,OVC030,0.00,0.00,VWS V15.00,2013-12-29 09:26:00,
2013-12-29 04:30:00,75.8,72.3,29.94,SSE,162,2.0,11.0,89,0.00,,SCT030,0.00,0.00,VWS V15.00,2013-12-29 09:30:00,
2013-12-29 04:31:00,75.6,71.8,29.92,SE,146,7.0,9.0,88,0.00,,OVC030,0.00,0.00,VWS V15.00,2013-12-29 09:31:00,
2013-12-29 04:35:00,75.8,72.3,29.95,SSE,148,0.0,7.0,89,0.00,,SCT030,0.00,0.00,VWS V15.00,2013-12-29 09:35:00,
2013-12-29 04:36:00,75.6,71.8,29.92,SSE,148,4.0,9.0,88,0.00,,OVC030,0.00,0.00,VWS V15.00,2013-12-29 09:36:00,
2013-12-29 04:40:00,75.8,72.3,29.95,South,189,0.0,3.0,89,0.00,,SCT030,0.00,0.00,VWS V15.00,2013-12-29 09:40:00,
2013-12-29 04:41:00,75.6,71.8,29.92,SE,130,3.0,7.0,88,0.00,,OVC030,0.00,0.00,VWS V15.00,2013-12-29 09:41:00,
2013-12-29 04:45:00,75.7,72.2,29.95,SE,144,3.0,9.0,89,0.00,,SCT030,0.00,0.00,VWS V15.00,2013-12-29 09:45:00,
2013-12-29 04:46:00,75.6,71.8,29.92,SE,129,7.0,7.0,88,0.00,,OVC030,0.00,0.00,VWS V15.00,2013-12-29 09:46:00,
2013-12-29 04:50:00,75.7,72.2,29.95,SE,141,5.0,10.0,89,0.00,,SCT030,0.00,0.00,VWS V15.00,2013-12-29 09:50:00,
2013-12-29 04:51:00,75.7,71.9,29.92,SE,133,6.0,9.0,88,0.00,,OVC030,0.00,0.00,VWS V15.00,2013-12-29 09:51:00,
2013-12-29 04:55:00,75.7,72.2,29.96,SE,136,2.0,6.0,89,0.00,,SCT030,0.00,0.00,VWS V15.00,2013-12-29 09:55:00,
2013-12-29 04:56:00,75.7,71.9,29.93,SE,135,3.0,6.0,88,0.00,,OVC030,0.00,0.00,VWS V15.00,2013-12-29 09:56:00,
2013-12-29 05:00:00,75.7,72.2,29.96,SSE,158,5.0,7.0,89,0.00,,SCT030,0.00,0.00,VWS V15.00,2013-12-29 10:00:00,
2013-12-29 05:01:00,75.7,71.9,29.93,SSE,159,2.0,3.0,88,0.00,,OVC030,0.00,0.00,VWS V15.00,2013-12-29 10:01:00,
2013-12-29 05:05:00,75.7,71.9,29.96,SSE,168,3.0,6.0,88,0.00,,SCT030,0.00,0.00,VWS V15.00,2013-12-29 10:05:00,
2013-12-29 05:06:00,75.7,71.9,29.94,SSE,161,4.0,7.0,88,0.00,,OVC030,0.00,0.00,VWS V15.00,2013-12-29 10:06:00,
2013-12-29 05:10:00,75.7,71.9,29.96,ESE,111,0.0,5.0,88,0.00,,SCT030,0.00,0.00,VWS V15.00,2013-12-29 10:10:00,
2013-12-29 05:11:00,75.8,72.0,29.94,SE,128,6.0,6.0,88,0.00,,OVC030,0.00,0.00,VWS V15.00,2013-12-29 10:11:00,
2013-12-29 05:15:00,75.7,71.9,29.96,SE,141,1.0,6.0,88,0.00,,SCT030,0.00,0.00,VWS V15.00,2013-12-29 10:15:00,
2013-12-29 05:16:00,75.8,72.3,29.94,SE,141,1.0,4.0,89,0.00,,OVC030,0.00,0.00,VWS V15.00,2013-12-29 10:16:00,
2013-12-29 05:20:00,75.7,71.9,29.96,SE,138,2.0,8.0,88,0.00,,SCT030,0.00,0.00,VWS V15.00,2013-12-29 10:20:00,
2013-12-29 05:21:00,75.8,72.3,29.94,South,175,3.0,5.0,89,0.00,,OVC030,0.00,0.00,VWS V15.00,2013-12-29 10:21:00,
2013-12-29 05:25:00,75.7,71.9,29.96,SSE,150,3.0,7.0,88,0.00,,SCT030,0.00,0.00,VWS V15.00,2013-12-29 10:25:00,
2013-12-29 05:26:00,75.8,72.3,29.94,South,169,4.0,11.0,89,0.00,,OVC030,0.00,0.00,VWS V15.00,2013-12-29 10:26:00,
2013-12-29 05:30:00,75.7,71.9,29.97,SE,144,4.0,6.0,88,0.00,,SCT030,0.00,0.00,VWS V15.00,2013-12-29 10:30:00,
2013-12-29 05:31:00,75.8,72.3,29.95,SSE,151,1.0,2.0,89,0.00,,OVC030,0.00,0.00,VWS V15.00,2013-12-29 10:31:00,
2013-12-29 05:35:00,75.7,71.9,29.97,SSE,150,5.0,7.0,88,0.00,,SCT030,0.00,0.00,VWS V15.00,2013-12-29 10:35:00,
2013-12-29 05:36:00,75.8,72.3,29.95,SSE,149,0.0,0.0,89,0.00,,OVC030,0.00,0.00,VWS V15.00,2013-12-29 10:36:00,
2013-12-29 05:40:00,75.7,71.9,29.97,SSE,150,1.0,6.0,88,0.00,,SCT030,0.00,0.00,VWS V15.00,2013-12-29 10:40:00,
2013-12-29 05:41:00,75.8,72.3,29.95,South,171,9.0,9.0,89,0.00,,OVC030,0.00,0.00,VWS V15.00,2013-12-29 10:41:00,
2013-12-29 05:45:00,75.7,71.9,29.97,SE,135,1.0,6.0,88,0.00,,SCT030,0.00,0.00,VWS V15.00,2013-12-29 10:45:00,
2013-12-29 05:46:00,75.8,72.3,29.95,SSE,154,4.0,6.0,89,0.00,,OVC030,0.00,0.00,VWS V15.00,2013-12-29 10:46:00,
2013-12-29 05:50:00,75.7,71.9,29.97,SSE,153,3.0,4.0,88,0.00,,SCT030,0.00,0.00,VWS V15.00,2013-12-29 10:50:00,
2013-12-29 05:51:00,75.7,72.2,29.96,SE,142,1.0,5.0,89,0.00,,OVC030,0.00,0.00,VWS V15.00,2013-12-29 10:51:00,
2013-12-29 05:55:00,75.7,71.9,29.98,SE,131,2.0,6.0,88,0.00,,SCT030,0.00,0.00,VWS V15.00,2013-12-29 10:55:00,
2013-12-29 05:56:00,75.7,72.2,29.96,SE,139,3.0,3.0,89,0.00,,OVC030,0.00,0.00,VWS V15.00,2013-12-29 10:56:00,
2013-12-29 06:00:00,75.6,71.8,29.98,SE,130,3.0,7.0,88,0.00,,SCT030,0.00,0.00,VWS V15.00,2013-12-29 11:00:00,
2013-12-29 06:01:00,75.7,72.2,29.96,SE,143,3.0,5.0,89,0.00,,OVC030,0.00,0.00,VWS V15.00,2013-12-29 11:01:00,
2013-12-29 06:05:00,75.6,71.8,29.97,SSE,148,2.0,6.0,88,0.00,,SCT030,0.00,0.00,VWS V15.00,2013-12-29 11:05:00,
2013-12-29 06:06:00,75.7,71.9,29.96,South,180,2.0,4.0,88,0.00,,OVC030,0.00,0.00,VWS V15.00,2013-12-29 11:06:00,
2013-12-29 06:10:00,75.6,71.8,29.98,SE,138,2.0,7.0,88,0.00,,SCT030,0.00,0.00,VWS V15.00,2013-12-29 11:10:00,
2013-12-29 06:11:00,75.7,71.9,29.96,ESE,113,2.0,2.0,88,0.00,,OVC030,0.00,0.00,VWS V15.00,2013-12-29 11:11:00,
2013-12-29 06:15:00,75.6,71.8,29.97,SE,131,0.0,5.0,88,0.00,,SCT030,0.00,0.00,VWS V15.00,2013-12-29 11:15:00,
2013-12-29 06:16:00,75.7,71.9,29.96,South,188,7.0,7.0,88,0.00,,OVC030,0.00,0.00,VWS V15.00,2013-12-29 11:16:00,
2013-12-29 06:20:00,75.5,72.0,29.97,SE,132,0.0,6.0,89,0.00,,SCT030,0.00,5.00,VWS V15.00,2013-12-29 11:20:00,
2013-12-29 06:21:00,75.7,71.9,29.97,SSE,150,5.0,5.0,88,0.00,,OVC030,0.00,0.00,VWS V15.00,2013-12-29 11:21:00,
2013-12-29 06:25:00,75.5,72.0,29.97,SE,132,0.0,4.0,89,0.00,,SCT030,0.00,7.00,VWS V15.00,2013-12-29 11:25:00,
2013-12-29 06:26:00,75.7,71.9,29.97,SE,138,0.0,5.0,88,0.00,,OVC030,0.00,0.00,VWS V15.00,2013-12-29 11:26:00,
2013-12-29 06:30:00,75.5,71.7,29.97,SE,135,0.0,4.0,88,0.00,,SCT030,0.00,9.00,VWS V15.00,2013-12-29 11:30:00,
2013-12-29 06:31:00,75.7,71.9,29.97,South,175,3.0,7.0,88,0.00,,OVC030,0.00,0.00,VWS V15.00,2013-12-29 11:31:00,
2013-12-29 06:35:00,75.5,72.0,29.98,SE,138,1.0,4.0,89,0.00,,SCT030,0.00,12.00,VWS V15.00,2013-12-29 11:35:00,
2013-12-29 06:36:00,75.7,71.9,29.97,SSE,161,3.0,5.0,88,0.00,,OVC030,0.00,0.00,VWS V15.00,2013-12-29 11:36:00,
2013-12-29 06:40:00,75.4,71.9,29.98,SE,146,0.0,4.0,89,0.00,,SCT030,0.00,16.00,VWS V15.00,2013-12-29 11:40:00,
2013-12-29 06:41:00,75.7,71.9,29.97,SSE,150,3.0,3.0,88,0.00,,OVC030,0.00,0.00,VWS V15.00,2013-12-29 11:41:00,
2013-12-29 06:45:00,75.4,71.9,29.98,SSE,147,0.0,3.0,89,0.00,,SCT030,0.00,19.00,VWS V15.00,2013-12-29 11:45:00,
2013-12-29 06:46:00,75.7,71.9,29.97,SE,131,1.0,3.0,88,0.00,,OVC030,0.00,0.00,VWS V15.00,2013-12-29 11:46:00,
2013-12-29 06:50:00,75.4,71.9,29.98,SSE,147,0.0,4.0,89,0.00,,SCT030,0.00,21.00,VWS V15.00,2013-12-29 11:50:00,
2013-12-29 06:51:00,75.7,71.9,29.97,SE,144,1.0,4.0,88,0.00,,OVC030,0.00,0.00,VWS V15.00,2013-12-29 11:51:00,
2013-12-29 06:55:00,75.4,71.9,29.98,SSE,147,0.0,4.0,89,0.00,,SCT030,0.00,25.00,VWS V15.00,2013-12-29 11:55:00,
2013-12-29 06:56:00,75.7,71.9,29.98,SSE,159,2.0,3.0,88,0.00,,OVC030,0.00,0.00,VWS V15.00,2013-12-29 11:56:00,
2013-12-29 07:00:00,75.4,71.9,29.98,SE,146,1.0,4.0,89,0.00,,SCT030,0.00,28.00,VWS V15.00,2013-12-29 12:00:00,
2013-12-29 07:01:00,75.7,71.9,29.97,SE,131,1.0,3.0,88,0.00,,OVC030,0.00,0.00,VWS V15.00,2013-12-29 12:01:00,
2013-12-29 07:05:00,75.4,71.9,29.98,SE,146,1.0,4.0,89,0.00,,SCT030,0.00,33.00,VWS V15.00,2013-12-29 12:05:00,
2013-12-29 07:06:00,75.6,71.8,29.98,SE,140,4.0,4.0,88,0.00,,BKN025,0.00,0.00,VWS V15.00,2013-12-29 12:06:00,
2013-12-29 07:10:00,75.4,71.9,29.99,SE,146,2.0,3.0,89,0.00,,SCT030,0.00,42.00,VWS V15.00,2013-12-29 12:10:00,
2013-12-29 07:11:00,75.6,71.8,29.97,SE,141,3.0,4.0,88,0.00,,BKN025,0.00,0.00,VWS V15.00,2013-12-29 12:11:00,
2013-12-29 07:15:00,75.5,72.0,29.99,SSE,152,3.0,4.0,89,0.00,,SCT030,0.00,54.00,VWS V15.00,2013-12-29 12:15:00,
2013-12-29 07:16:00,75.6,71.8,29.97,SE,131,0.0,1.0,88,0.00,,BKN025,0.00,0.00,VWS V15.00,2013-12-29 12:16:00,
2013-12-29 07:20:00,75.5,72.0,29.99,SE,144,0.0,4.0,89,0.00,,SCT030,0.00,65.00,VWS V15.00,2013-12-29 12:20:00,
2013-12-29 07:21:00,75.6,72.1,29.97,SE,133,1.0,1.0,89,0.00,,BKN025,0.00,5.00,VWS V15.00,2013-12-29 12:21:00,
2013-12-29 07:25:00,75.6,72.5,29.99,SE,132,0.0,6.0,90,0.00,,SCT030,0.00,74.00,VWS V15.00,2013-12-29 12:25:00,
2013-12-29 07:26:00,75.5,72.0,29.97,SE,132,0.0,0.0,89,0.00,,BKN025,0.00,7.00,VWS V15.00,2013-12-29 12:26:00,
2013-12-29 07:30:00,75.7,72.6,29.99,SE,142,0.0,6.0,90,0.00,,SCT030,0.00,83.00,VWS V15.00,2013-12-29 12:30:00,
2013-12-29 07:31:00,75.5,71.7,29.97,SE,135,0.0,0.0,88,0.00,,BKN025,0.00,11.00,VWS V15.00,2013-12-29 12:31:00,
2013-12-29 07:35:00,75.8,72.7,29.98,SE,146,0.0,5.0,90,0.00,,SCT030,0.00,95.00,VWS V15.00,2013-12-29 12:35:00,
2013-12-29 07:36:00,75.5,72.0,29.98,SE,138,0.0,1.0,89,0.00,,BKN025,0.00,12.00,VWS V15.00,2013-12-29 12:36:00,
2013-12-29 07:40:00,75.9,72.8,29.99,SSE,161,1.0,3.0,90,0.00,,SCT030,0.00,104.00,VWS V15.00,2013-12-29 12:40:00,
2013-12-29 07:41:00,75.4,71.9,29.98,SE,146,0.0,0.0,89,0.00,,BKN025,0.00,16.00,VWS V15.00,2013-12-29 12:41:00,
2013-12-29 07:45:00,76.0,72.9,29.99,SSE,167,4.0,5.0,90,0.00,,SCT030,0.00,120.00,VWS V15.00,2013-12-29 12:45:00,
2013-12-29 07:46:00,75.4,71.9,29.98,SE,146,1.0,1.0,89,0.00,,BKN025,0.00,19.00,VWS V15.00,2013-12-29 12:46:00,
2013-12-29 07:50:00,76.2,73.1,29.99,SSE,167,0.0,5.0,90,0.00,,SCT030,0.00,142.00,VWS V15.00,2013-12-29 12:50:00,
2013-12-29 07:51:00,75.4,71.9,29.98,SSE,147,1.0,1.0,89,0.00,,BKN025,0.00,21.00,VWS V15.00,2013-12-29 12:51:00,
2013-12-29 07:55:00,76.4,73.2,29.99,SSE,166,0.0,2.0,90,0.00,,SCT030,0.00,163.00,VWS V15.00,2013-12-29 12:55:00,
2013-12-29 07:56:00,75.4,71.9,29.98,SSE,147,0.0,0.0,89,0.00,,BKN025,0.00,25.00,VWS V15.00,2013-12-29 12:56:00,
2013-12-29 08:00:00,76.6,73.4,29.99,South,173,0.0,6.0,90,0.00,,SCT030,0.00,130.00,VWS V15.00,2013-12-29 13:00:00,
2013-12-29 08:01:00,75.4,71.9,29.98,SE,146,0.0,1.0,89,0.00,,BKN025,0.00,28.00,VWS V15.00,2013-12-29 13:01:00,
2013-12-29 08:05:00,76.7,73.2,29.99,SE,137,5.0,7.0,89,0.00,,SCT030,0.00,123.00,VWS V15.00,2013-12-29 13:05:00,
2013-12-29 08:06:00,75.4,71.9,29.98,SE,146,1.0,1.0,89,0.00,,FEW021,0.00,33.00,VWS V15.00,2013-12-29 13:06:00,
2013-12-29 08:10:00,76.9,73.4,29.99,South,173,5.0,10.0,89,0.00,,SCT030,0.00,114.00,VWS V15.00,2013-12-29 13:10:00,
2013-12-29 08:11:00,75.4,71.9,29.99,SE,146,0.0,2.0,89,0.00,,FEW021,0.00,44.00,VWS V15.00,2013-12-29 13:11:00,
2013-12-29 08:15:00,77.1,73.3,30.00,South,174,1.0,11.0,88,0.00,,SCT030,0.00,111.00,VWS V15.00,2013-12-29 13:15:00,
2013-12-29 08:16:00,75.4,71.9,29.99,SSE,152,2.0,3.0,89,0.00,,FEW021,0.00,54.00,VWS V15.00,2013-12-29 13:16:00,
2013-12-29 08:20:00,77.3,73.5,30.00,SSE,164,5.0,8.0,88,0.00,,SCT030,0.00,109.00,VWS V15.00,2013-12-29 13:20:00,
2013-12-29 08:21:00,75.5,72.4,29.99,SE,144,0.0,2.0,90,0.00,,FEW021,0.00,65.00,VWS V15.00,2013-12-29 13:21:00,
2013-12-29 08:25:00,77.4,73.6,29.99,SE,140,4.0,14.0,88,0.00,,SCT030,0.00,114.00,VWS V15.00,2013-12-29 13:25:00,
2013-12-29 08:26:00,75.6,72.5,29.99,SE,132,0.0,1.0,90,0.00,,FEW021,0.00,74.00,VWS V15.00,2013-12-29 13:26:00,
2013-12-29 08:30:00,77.5,73.3,30.00,SSE,166,2.0,7.0,87,0.00,,SCT030,0.00,125.00,VWS V15.00,2013-12-29 13:30:00,
2013-12-29 08:31:00,75.7,72.6,29.99,SE,142,2.0,3.0,90,0.00,,FEW021,0.00,83.00,VWS V15.00,2013-12-29 13:31:00,
2013-12-29 08:35:00,77.6,73.4,30.00,ESE,105,5.0,7.0,87,0.00,,SCT030,0.00,127.00,VWS V15.00,2013-12-29 13:35:00,
2013-12-29 08:36:00,75.8,72.7,29.99,SE,146,0.0,0.0,90,0.00,,FEW021,0.00,95.00,VWS V15.00,2013-12-29 13:36:00,
2013-12-29 08:40:00,77.8,73.6,30.00,SE,134,1.0,10.0,87,0.00,,SCT030,0.00,127.00,VWS V15.00,2013-12-29 13:40:00,
2013-12-29 08:41:00,75.9,72.8,29.99,SSE,161,0.0,1.0,90,0.00,,FEW021,0.00,107.00,VWS V15.00,2013-12-29 13:41:00,
2013-12-29 08:45:00,77.9,73.7,30.01,SSE,163,1.0,9.0,87,0.00,,SCT030,0.00,123.00,VWS V15.00,2013-12-29 13:45:00,
2013-12-29 08:46:00,76.0,72.9,29.99,SSE,166,3.0,5.0,90,0.00,,FEW021,0.00,123.00,VWS V15.00,2013-12-29 13:46:00,
2013-12-29 08:50:00,77.9,73.4,30.00,SE,128,5.0,11.0,86,0.00,,SCT030,0.00,109.00,VWS V15.00,2013-12-29 13:50:00,
2013-12-29 08:51:00,76.2,73.1,30.00,SSE,167,0.0,1.0,90,0.00,,FEW021,0.00,142.00,VWS V15.00,2013-12-29 13:51:00,
2013-12-29 08:55:00,78.0,73.5,30.00,SE,144,6.0,11.0,86,0.00,,SCT030,0.00,84.00,VWS V15.00,2013-12-29 13:55:00,
2013-12-29 08:56:00,76.4,73.2,29.99,SSE,166,1.0,1.0,90,0.00,,BKN030,0.00,163.00,VWS V15.00,2013-12-29 13:56:00,
2013-12-29 09:00:00,78.1,73.6,30.00,SSE,150,3.0,10.0,86,0.00,,SCT030,0.00,69.00,VWS V15.00,2013-12-29 14:00:00,
2013-12-29 09:01:00,76.6,73.4,29.99,SE,142,5.0,5.0,90,0.00,,BKN030,0.00,130.00,VWS V15.00,2013-12-29 14:01:00,
2013-12-29 09:05:00,78.1,73.6,30.00,SE,144,1.0,11.0,86,0.00,,SCT030,0.00,62.00,VWS V15.00,2013-12-29 14:05:00,
2013-12-29 09:06:00,76.7,73.2,29.99,SE,134,2.0,5.0,89,0.00,,BKN030,0.00,123.00,VWS V15.00,2013-12-29 14:06:00,
2013-12-29 09:10:00,78.1,73.2,30.00,SSE,158,3.0,10.0,85,0.00,,SCT030,0.00,63.00,VWS V15.00,2013-12-29 14:10:00,
2013-12-29 09:11:00,76.9,73.4,29.99,SE,144,6.0,7.0,89,0.00,,BKN030,0.00,114.00,VWS V15.00,2013-12-29 14:11:00,
2013-12-29 09:15:00,78.1,73.2,30.00,SSE,148,2.0,11.0,85,0.00,,SCT030,0.00,69.00,VWS V15.00,2013-12-29 14:15:00,
2013-12-29 09:16:00,77.1,73.3,30.00,SE,140,4.0,4.0,88,0.00,,BKN030,0.00,111.00,VWS V15.00,2013-12-29 14:16:00,
2013-12-29 09:20:00,78.2,73.3,30.00,SE,144,8.0,9.0,85,0.00,,SCT030,0.00,67.00,VWS V15.00,2013-12-29 14:20:00,
2013-12-29 09:21:00,77.2,73.4,29.99,South,173,5.0,10.0,88,0.00,,BKN030,0.00,109.00,VWS V15.00,2013-12-29 14:21:00,
2013-12-29 09:25:00,78.1,73.2,29.99,SE,125,7.0,10.0,85,0.00,,SCT030,0.00,63.00,VWS V15.00,2013-12-29 14:25:00,
2013-12-29 09:26:00,77.4,73.6,29.99,SE,142,7.0,7.0,88,0.00,,BKN030,0.00,114.00,VWS V15.00,2013-12-29 14:26:00,
2013-12-29 09:30:00,78.1,73.2,30.00,SE,138,2.0,12.0,85,0.00,,SCT030,0.00,60.00,VWS V15.00,2013-12-29 14:30:00,
2013-12-29 09:31:00,77.5,73.3,30.00,SSE,165,0.0,2.0,87,0.00,,BKN030,0.00,125.00,VWS V15.00,2013-12-29 14:31:00,
2013-12-29 09:35:00,78.2,73.3,29.99,SSE,156,3.0,11.0,85,0.00,,SCT030,0.00,62.00,VWS V15.00,2013-12-29 14:35:00,
2013-12-29 09:36:00,77.6,73.4,30.00,SSE,159,9.0,9.0,87,0.00,,BKN030,0.00,127.00,VWS V15.00,2013-12-29 14:36:00,
2013-12-29 09:40:00,78.2,73.3,29.99,SSE,150,14.0,14.0,85,0.00,,SCT030,0.00,83.00,VWS V15.00,2013-12-29 14:40:00,
2013-12-29 09:41:00,77.8,73.6,30.00,SE,134,3.0,3.0,87,0.00,,BKN030,0.00,127.00,VWS V15.00,2013-12-29 14:41:00,
2013-12-29 09:45:00,78.2,73.3,29.99,South,187,12.0,14.0,85,0.00,,SCT030,0.00,123.00,VWS V15.00,2013-12-29 14:45:00,
2013-12-29 09:46:00,77.9,73.7,30.01,South,190,5.0,5.0,87,0.00,,BKN030,0.00,123.00,VWS V15.00,2013-12-29 14:46:00,
2013-12-29 09:50:00,78.3,73.4,30.00,SW,215,4.0,13.0,85,0.00,,SCT030,0.00,116.00,VWS V15.00,2013-12-29 14:50:00,
2013-12-29 09:51:00,78.0,73.5,30.00,SSE,154,9.0,11.0,86,0.00,,BKN030,0.00,104.00,VWS V15.00,2013-12-29 14:51:00,
2013-12-29 09:55:00,78.4,73.5,30.00,SE,139,5.0,11.0,85,0.00,,SCT030,0.00,74.00,VWS V15.00,2013-12-29 14:55:00,
2013-12-29 09:56:00,78.0,73.5,30.00,SSE,155,5.0,6.0,86,0.00,,BKN030,0.00,84.00,VWS V15.00,2013-12-29 14:56:00,
2013-12-29 10:00:00,78.4,73.5,29.99,South,170,2.0,12.0,85,0.00,,SCT030,0.00,155.00,VWS V15.00,2013-12-29 15:00:00,
2013-12-29 10:01:00,78.1,73.6,30.00,South,188,6.0,6.0,86,0.00,,BKN033,0.00,69.00,VWS V15.00,2013-12-29 15:01:00,
2013-12-29 10:05:00,78.6,73.7,29.99,SSW,201,4.0,11.0,85,0.00,,SCT030,0.00,169.00,VWS V15.00,2013-12-29 15:05:00,
2013-12-29 10:06:00,78.1,73.6,30.00,SE,145,2.0,2.0,86,0.00,,BKN033,0.00,62.00,VWS V15.00,2013-12-29 15:06:00,
2013-12-29 10:10:00,78.7,73.5,29.99,South,173,6.0,12.0,84,0.00,,SCT030,0.00,214.00,VWS V15.00,2013-12-29 15:10:00,
2013-12-29 10:11:00,78.1,73.2,30.00,SSE,159,3.0,4.0,85,0.00,,BKN033,0.00,63.00,VWS V15.00,2013-12-29 15:11:00,
2013-12-29 10:15:00,78.8,73.6,29.99,SSE,165,5.0,12.0,84,0.00,,SCT030,0.00,207.00,VWS V15.00,2013-12-29 15:15:00,
2013-12-29 10:16:00,78.1,73.2,30.00,South,170,2.0,2.0,85,0.00,,BKN033,0.00,69.00,VWS V15.00,2013-12-29 15:16:00,
2013-12-29 10:20:00,79.0,73.8,29.98,SE,138,5.0,12.0,84,0.00,,SCT030,0.00,186.00,VWS V15.00,2013-12-29 15:20:00,
2013-12-29 10:21:00,78.2,73.3,30.00,SE,134,6.0,8.0,85,0.00,,BKN033,0.00,67.00,VWS V15.00,2013-12-29 15:21:00,
2013-12-29 10:25:00,79.1,73.8,29.98,South,182,7.0,13.0,84,0.00,,SCT030,0.00,158.00,VWS V15.00,2013-12-29 15:25:00,
2013-12-29 10:26:00,78.1,73.2,29.99,SSE,149,6.0,7.0,85,0.00,,BKN033,0.00,63.00,VWS V15.00,2013-12-29 15:26:00,
2013-12-29 10:30:00,79.2,73.6,29.98,South,180,11.0,16.0,83,0.00,,SCT030,0.00,167.00,VWS V15.00,2013-12-29 15:30:00,
2013-12-29 10:31:00,78.1,73.2,30.00,SE,138,1.0,2.0,85,0.00,,BKN033,0.00,60.00,VWS V15.00,2013-12-29 15:31:00,
2013-12-29 10:35:00,79.3,73.7,29.98,South,175,12.0,12.0,83,0.00,,SCT030,0.00,156.00,VWS V15.00,2013-12-29 15:35:00,
2013-12-29 10:36:00,78.2,73.3,29.99,SSE,156,3.0,11.0,85,0.00,,BKN033,0.00,62.00,VWS V15.00,2013-12-29 15:36:00,
2013-12-29 10:40:00,79.3,73.7,29.97,South,176,4.0,17.0,83,0.00,,SCT030,0.00,149.00,VWS V15.00,2013-12-29 15:40:00,
2013-12-29 10:41:00,78.2,73.3,29.99,SSE,150,14.0,14.0,85,0.00,,BKN033,0.00,83.00,VWS V15.00,2013-12-29 15:41:00,
2013-12-29 10:45:00,79.3,73.7,29.97,SE,132,2.0,18.0,83,0.00,,SCT030,0.00,146.00,VWS V15.00,2013-12-29 15:45:00,
2013-12-29 10:46:00,78.2,73.3,29.99,South,187,12.0,14.0,85,0.00,,BKN033,0.00,123.00,VWS V15.00,2013-12-29 15:46:00,
2013-12-29 10:50:00,79.3,73.7,29.97,SE,126,3.0,11.0,83,0.00,,SCT030,0.00,141.00,VWS V15.00,2013-12-29 15:50:00,
2013-12-29 10:51:00,78.3,73.4,30.00,SW,215,4.0,13.0,85,0.00,,BKN033,0.00,116.00,VWS V15.00,2013-12-29 15:51:00,
2013-12-29 10:55:00,79.3,73.3,29.97,SSE,153,16.0,16.0,82,0.00,,SCT030,0.00,151.00,VWS V15.00,2013-12-29 15:55:00,
2013-12-29 10:56:00,78.4,73.5,30.00,SE,139,5.0,11.0,85,0.00,,BKN033,0.00,74.00,VWS V15.00,2013-12-29 15:56:00,
2013-12-29 11:00:00,79.3,73.3,29.97,SSE,168,14.0,16.0,82,0.00,,SCT030,0.00,207.00,VWS V15.00,2013-12-29 16:00:00,
2013-12-29 11:01:00,78.4,73.5,29.99,South,170,2.0,12.0,85,0.00,,SCT029,0.00,155.00,VWS V15.00,2013-12-29 16:01:00,
2013-12-29 11:05:00,79.4,73.4,29.97,SE,142,5.0,14.0,82,0.00,,SCT030,0.00,243.00,VWS V15.00,2013-12-29 16:05:00,
2013-12-29 11:06:00,78.6,73.7,29.99,SSW,201,4.0,11.0,85,0.00,,SCT029,0.00,169.00,VWS V15.00,2013-12-29 16:06:00,
2013-12-29 11:10:00,79.6,73.6,29.97,SW,217,6.0,16.0,82,0.00,,SCT030,0.00,253.00,VWS V15.00,2013-12-29 16:10:00,
2013-12-29 11:11:00,78.7,73.5,29.99,South,173,6.0,12.0,84,0.00,,SCT029,0.00,214.00,VWS V15.00,2013-12-29 16:11:00,
2013-12-29 11:15:00,79.8,73.5,29.96,SE,146,6.0,13.0,81,0.00,,SCT030,0.00,343.00,VWS V15.00,2013-12-29 16:15:00,
2013-12-29 11:16:00,78.8,73.6,29.99,SSE,153,6.0,6.0,84,0.00,,SCT029,0.00,207.00,VWS V15.00,2013-12-29 16:16:00,
2013-12-29 11:20:00,80.3,73.6,29.95,SSE,148,13.0,20.0,80,0.00,,SCT030,0.00,494.00,VWS V15.00,2013-12-29 16:20:00,
2013-12-29 11:21:00,79.0,73.8,29.98,South,180,5.0,5.0,84,0.00,,SCT029,0.00,186.00,VWS V15.00,2013-12-29 16:21:00,
2013-12-29 11:25:00,80.9,73.8,29.95,SE,141,15.0,17.0,79,0.00,,SCT030,0.00,295.00,VWS V15.00,2013-12-29 16:25:00,
2013-12-29 11:26:00,79.1,73.8,29.98,South,182,7.0,13.0,84,0.00,,SCT029,0.00,158.00,VWS V15.00,2013-12-29 16:26:00,
2013-12-29 11:30:00,81.0,73.9,29.94,SSE,158,6.0,17.0,79,0.00,,SCT030,0.00,329.00,VWS V15.00,2013-12-29 16:30:00,
2013-12-29 11:31:00,79.2,73.6,29.98,South,180,11.0,16.0,83,0.00,,SCT029,0.00,167.00,VWS V15.00,2013-12-29 16:31:00,
2013-12-29 11:35:00,81.1,73.6,29.94,SSE,153,7.0,15.0,78,0.00,,SCT030,0.00,311.00,VWS V15.00,2013-12-29 16:35:00,
2013-12-29 11:36:00,79.3,73.7,29.98,South,175,12.0,12.0,83,0.00,,SCT029,0.00,156.00,VWS V15.00,2013-12-29 16:36:00,
2013-12-29 11:40:00,81.2,73.7,29.94,SSE,158,3.0,15.0,78,0.00,,SCT030,0.00,434.00,VWS V15.00,2013-12-29 16:40:00,
2013-12-29 11:41:00,79.3,73.7,29.97,South,176,4.0,17.0,83,0.00,,SCT029,0.00,149.00,VWS V15.00,2013-12-29 16:41:00,
2013-12-29 11:45:00,81.6,74.1,29.93,SSW,211,6.0,15.0,78,0.00,,SCT030,0.00,274.00,VWS V15.00,2013-12-29 16:45:00,
2013-12-29 11:46:00,79.3,73.7,29.97,SE,132,2.0,18.0,83,0.00,,SCT029,0.00,146.00,VWS V15.00,2013-12-29 16:46:00,
2013-12-29 11:50:00,81.8,73.9,29.93,South,173,3.0,13.0,77,0.00,,SCT030,0.00,287.00,VWS V15.00,2013-12-29 16:50:00,
2013-12-29 11:51:00,79.3,73.7,29.97,SE,126,3.0,11.0,83,0.00,,BKN080,0.00,141.00,VWS V15.00,2013-12-29 16:51:00,
2013-12-29 11:55:00,81.7,73.8,29.93,SSE,163,13.0,16.0,77,0.00,,SCT030,0.00,381.00,VWS V15.00,2013-12-29 16:55:00,
2013-12-29 11:56:00,79.3,73.3,29.97,SSE,153,16.0,16.0,82,0.00,,BKN080,0.00,151.00,VWS V15.00,2013-12-29 16:56:00,
2013-12-29 12:00:00,81.7,73.8,29.92,SSE,151,5.0,15.0,77,0.00,,SCT030,0.00,264.00,VWS V15.00,2013-12-29 17:00:00,
2013-12-29 12:01:00,79.3,73.3,29.97,SSE,168,14.0,16.0,82,0.00,,BKN080,0.00,207.00,VWS V15.00,2013-12-29 17:01:00,
2013-12-29 12:05:00,81.5,73.6,29.92,SSE,156,6.0,18.0,77,0.00,,SCT030,0.00,309.00,VWS V15.00,2013-12-29 17:05:00,
2013-12-29 12:06:00,79.4,73.4,29.97,SSW,205,4.0,14.0,82,0.00,,BKN080,0.00,243.00,VWS V15.00,2013-12-29 17:06:00,
2013-12-29 12:10:00,81.5,73.6,29.92,SSW,196,9.0,17.0,77,0.00,,SCT030,0.00,260.00,VWS V15.00,2013-12-29 17:10:00,
2013-12-29 12:11:00,79.6,73.6,29.97,SW,217,6.0,16.0,82,0.00,,BKN080,0.00,253.00,VWS V15.00,2013-12-29 17:11:00,
2013-12-29 12:15:00,81.5,73.6,29.92,SSE,159,7.0,13.0,77,0.00,,SCT030,0.00,202.00,VWS V15.00,2013-12-29 17:15:00,
2013-12-29 12:16:00,79.8,73.4,29.96,SE,146,6.0,13.0,81,0.00,,BKN080,0.00,343.00,VWS V15.00,2013-12-29 17:16:00,
2013-12-29 12:20:00,81.5,73.6,29.91,South,175,6.0,12.0,77,0.00,,SCT030,0.00,227.00,VWS V15.00,2013-12-29 17:20:00,
2013-12-29 12:21:00,80.3,73.6,29.95,SSE,148,13.0,20.0,80,0.00,,BKN080,0.00,494.00,VWS V15.00,2013-12-29 17:21:00,
2013-12-29 12:25:00,81.6,74.1,29.91,SSW,203,3.0,11.0,78,0.00,,SCT030,0.00,214.00,VWS V15.00,2013-12-29 17:25:00,
2013-12-29 12:26:00,80.9,73.8,29.95,SE,141,15.0,17.0,79,0.00,,BKN080,0.00,295.00,VWS V15.00,2013-12-29 17:26:00,
2013-12-29 12:30:00,81.7,73.8,29.91,South,178,2.0,11.0,77,0.00,,SCT030,0.00,234.00,VWS V15.00,2013-12-29 17:30:00,
2013-12-29 12:31:00,81.0,73.9,29.94,SSE,158,6.0,17.0,79,0.00,,BKN080,0.00,329.00,VWS V15.00,2013-12-29 17:31:00,
2013-12-29 12:35:00,81.8,73.9,29.91,SSE,162,5.0,11.0,77,0.00,,SCT030,0.00,239.00,VWS V15.00,2013-12-29 17:35:00,
2013-12-29 12:36:00,81.1,73.6,29.94,SSE,153,7.0,15.0,78,0.00,,BKN080,0.00,311.00,VWS V15.00,2013-12-29 17:36:00,
2013-12-29 12:40:00,81.8,73.9,29.91,South,173,11.0,13.0,77,0.00,,SCT030,0.00,213.00,VWS V15.00,2013-12-29 17:40:00,
2013-12-29 12:41:00,81.2,73.7,29.94,SSE,158,4.0,15.0,78,0.00,,BKN080,0.00,434.00,VWS V15.00,2013-12-29 17:41:00,
2013-12-29 12:45:00,81.8,73.9,29.90,SSW,207,10.0,13.0,77,0.00,,SCT030,0.00,197.00,VWS V15.00,2013-12-29 17:45:00,
2013-12-29 12:46:00,81.6,74.1,29.93,SSW,198,5.0,15.0,78,0.00,,BKN080,0.00,274.00,VWS V15.00,2013-12-29 17:46:00,
2013-12-29 12:50:00,81.6,73.7,29.90,South,173,12.0,15.0,77,0.00,,SCT030,0.00,209.00,VWS V15.00,2013-12-29 17:50:00,
2013-12-29 12:51:00,81.9,74.0,29.93,SE,142,5.0,13.0,77,0.00,,BKN080,0.00,287.00,VWS V15.00,2013-12-29 17:51:00,
2013-12-29 12:55:00,81.5,73.6,29.90,South,188,4.0,15.0,77,0.00,,SCT030,0.00,153.00,VWS V15.00,2013-12-29 17:55:00,
2013-12-29 12:56:00,81.8,73.9,29.93,SSE,157,6.0,16.0,77,0.00,,BKN080,0.00,381.00,VWS V15.00,2013-12-29 17:56:00,
2013-12-29 13:00:00,81.4,73.5,29.91,SSW,205,7.0,14.0,77,0.00,,SCT030,0.00,116.00,VWS V15.00,2013-12-29 18:00:00,
2013-12-29 13:01:00,81.7,73.8,29.92,SSE,151,5.0,15.0,77,0.00,,BKN080,0.00,264.00,VWS V15.00,2013-12-29 18:01:00,
2013-12-29 13:05:00,81.2,73.3,29.91,SSW,206,4.0,15.0,77,0.00,,SCT030,0.00,130.00,VWS V15.00,2013-12-29 18:05:00,
2013-12-29 13:06:00,81.5,73.6,29.92,SSE,156,6.0,18.0,77,0.00,,BKN080,0.00,309.00,VWS V15.00,2013-12-29 18:06:00,
2013-12-29 13:10:00,81.1,73.6,29.91,South,175,5.0,13.0,78,0.00,,SCT030,0.00,141.00,VWS V15.00,2013-12-29 18:10:00,
2013-12-29 13:11:00,81.5,73.6,29.92,SSW,196,9.0,17.0,77,0.00,,BKN080,0.00,260.00,VWS V15.00,2013-12-29 18:11:00,
2013-12-29 13:15:00,81.1,73.6,29.91,SSW,203,3.0,13.0,78,0.00,,SCT030,0.00,171.00,VWS V15.00,2013-12-29 18:15:00,
2013-12-29 13:16:00,81.5,73.6,29.92,SSE,159,7.0,13.0,77,0.00,,BKN050,0.00,202.00,VWS V15.00,2013-12-29 18:16:00,
2013-12-29 13:20:00,81.1,73.6,29.90,South,173,6.0,14.0,78,0.00,,SCT030,0.00,204.00,VWS V15.00,2013-12-29 18:20:00,
2013-12-29 13:21:00,81.5,73.6,29.91,South,175,6.0,12.0,77,0.00,,BKN050,0.00,227.00,VWS V15.00,2013-12-29 18:21:00,
2013-12-29 13:25:00,81.1,73.6,29.91,SE,134,2.0,12.0,78,0.00,,SCT030,0.00,223.00,VWS V15.00,2013-12-29 18:25:00,
2013-12-29 13:26:00,81.6,74.1,29.91,SSW,203,3.0,11.0,78,0.00,,BKN050,0.00,214.00,VWS V15.00,2013-12-29 18:26:00,
2013-12-29 13:30:00,81.2,74.1,29.91,SSW,204,5.0,14.0,79,0.00,,SCT030,0.00,193.00,VWS V15.00,2013-12-29 18:30:00,
2013-12-29 13:31:00,81.7,73.8,29.91,South,178,2.0,11.0,77,0.00,,BKN050,0.00,234.00,VWS V15.00,2013-12-29 18:31:00,
2013-12-29 13:35:00,81.2,74.1,29.90,South,171,4.0,12.0,79,0.00,,SCT030,0.00,174.00,VWS V15.00,2013-12-29 18:35:00,
2013-12-29 13:36:00,81.8,73.9,29.91,SSE,162,5.0,11.0,77,0.00,,BKN050,0.00,239.00,VWS V15.00,2013-12-29 18:36:00,
2013-12-29 13:40:00,81.1,74.0,29.90,South,179,7.0,15.0,79,0.00,,SCT030,0.00,142.00,VWS V15.00,2013-12-29 18:40:00,
2013-12-29 13:41:00,81.8,73.9,29.91,SSE,161,7.0,13.0,77,0.00,,BKN050,0.00,213.00,VWS V15.00,2013-12-29 18:41:00,
2013-12-29 13:45:00,81.0,73.9,29.90,SSE,163,4.0,11.0,79,0.00,,SCT030,0.00,151.00,VWS V15.00,2013-12-29 18:45:00,
2013-12-29 13:46:00,81.8,73.9,29.90,South,171,12.0,13.0,77,0.00,,BKN050,0.00,202.00,VWS V15.00,2013-12-29 18:46:00,
2013-12-29 13:50:00,80.8,73.7,29.90,SSW,197,5.0,15.0,79,0.00,,SCT030,0.00,142.00,VWS V15.00,2013-12-29 18:50:00,
2013-12-29 13:51:00,81.6,73.7,29.90,SSW,200,11.0,15.0,77,0.00,,BKN050,0.00,209.00,VWS V15.00,2013-12-29 18:51:00,
2013-12-29 13:55:00,80.6,73.9,29.90,South,178,2.0,14.0,80,0.00,,SCT030,0.00,155.00,VWS V15.00,2013-12-29 18:55:00,
2013-12-29 13:56:00,81.5,73.6,29.90,SW,232,5.0,15.0,77,0.00,,BKN050,0.00,153.00,VWS V15.00,2013-12-29 18:56:00,
2013-12-29 14:00:00,80.5,73.8,29.90,South,182,12.0,17.0,80,0.00,,SCT030,0.00,236.00,VWS V15.00,2013-12-29 19:00:00,
2013-12-29 14:01:00,81.4,73.5,29.91,SSW,211,14.0,14.0,77,0.00,,BKN050,0.00,116.00,VWS V15.00,2013-12-29 19:01:00,
2013-12-29 14:05:00,80.5,73.8,29.90,SW,220,0.0,15.0,80,0.00,,SCT030,0.00,269.00,VWS V15.00,2013-12-29 19:05:00,
2013-12-29 14:06:00,81.2,73.3,29.91,SE,130,8.0,15.0,77,0.00,,BKN050,0.00,130.00,VWS V15.00,2013-12-29 19:06:00,
2013-12-29 14:10:00,80.8,73.7,29.90,SSE,159,4.0,11.0,79,0.00,,SCT030,0.00,221.00,VWS V15.00,2013-12-29 19:10:00,
2013-12-29 14:11:00,81.1,73.6,29.91,South,175,5.0,13.0,78,0.00,,BKN050,0.00,141.00,VWS V15.00,2013-12-29 19:11:00,
2013-12-29 14:15:00,81.1,73.6,29.91,SW,214,4.0,13.0,78,0.00,,BKN050,0.00,171.00,VWS V15.00,2013-12-29 19:15:00,
2013-12-29 14:20:00,81.1,73.6,29.90,SSE,168,6.0,14.0,78,0.00,,BKN050,0.00,204.00,VWS V15.00,2013-12-29 19:20:00,
2013-12-29 14:25:00,81.1,73.6,29.91,SE,128,4.0,12.0,78,0.00,,BKN050,0.00,223.00,VWS V15.00,2013-12-29 19:25:00,
2013-12-29 14:30:00,81.2,74.1,29.91,South,178,3.0,14.0,79,0.00,,BKN050,0.00,193.00,VWS V15.00,2013-12-29 19:30:00,
2013-12-29 14:35:00,81.2,74.1,29.90,South,179,5.0,12.0,79,0.00,,BKN050,0.00,174.00,VWS V15.00,2013-12-29 19:35:00,
2013-12-29 14:40:00,81.1,74.0,29.90,South,177,12.0,15.0,79,0.00,,BKN050,0.00,142.00,VWS V15.00,2013-12-29 19:40:00,
2013-12-29 14:45:00,81.0,73.9,29.90,South,186,4.0,11.0,79,0.00,,BKN050,0.00,151.00,VWS V15.00,2013-12-29 19:45:00,
2013-12-29 14:50:00,80.8,73.7,29.90,SSW,196,6.0,15.0,79,0.00,,BKN050,0.00,134.00,VWS V15.00,2013-12-29 19:50:00,
2013-12-29 14:55:00,80.6,73.9,29.90,South,175,5.0,14.0,80,0.00,,BKN050,0.00,155.00,VWS V15.00,2013-12-29 19:55:00,
2013-12-29 15:00:00,80.5,73.8,29.90,SSE,160,2.0,17.0,80,0.00,,BKN050,0.00,236.00,VWS V15.00,2013-12-29 20:00:00,
2013-12-29 15:05:00,80.5,73.8,29.90,SW,226,2.0,15.0,80,0.00,,BKN050,0.00,269.00,VWS V15.00,2013-12-29 20:05:00,
2013-12-29 15:10:00,80.7,73.6,29.90,SSE,150,3.0,11.0,79,0.00,,BKN050,0.00,221.00,VWS V15.00,2013-12-29 20:10:00,
2013-12-29 15:15:00,80.9,73.8,29.90,SSE,165,4.0,13.0,79,0.00,,BKN050,0.00,297.00,VWS V15.00,2013-12-29 20:15:00,
2013-12-29 15:20:00,81.1,74.0,29.90,SW,229,4.0,13.0,79,0.00,,BKN050,0.00,169.00,VWS V15.00,2013-12-29 20:20:00,
2013-12-29 15:25:00,81.2,73.7,29.90,SW,229,13.0,14.0,78,0.00,,BKN050,0.00,128.00,VWS V15.00,2013-12-29 20:25:00,
2013-12-29 15:30:00,81.2,73.3,29.90,SSW,204,11.0,13.0,77,0.00,,BKN050,0.00,118.00,VWS V15.00,2013-12-29 20:30:00,
2013-12-29 15:35:00,81.1,73.2,29.90,SSE,161,4.0,13.0,77,0.00,,BKN050,0.00,95.00,VWS V15.00,2013-12-29 20:35:00,
2013-12-29 15:40:00,81.0,73.5,29.90,SW,221,3.0,13.0,78,0.00,,BKN050,0.00,90.00,VWS V15.00,2013-12-29 20:40:00,
2013-12-29 15:45:00,80.9,73.4,29.91,SSE,163,11.0,13.0,78,0.00,,BKN050,0.00,74.00,VWS V15.00,2013-12-29 20:45:00,
2013-12-29 15:50:00,80.7,73.6,29.90,SSW,192,3.0,17.0,79,0.00,,BKN050,0.00,77.00,VWS V15.00,2013-12-29 20:50:00,
2013-12-29 15:55:00,80.6,73.5,29.91,SSW,194,5.0,12.0,79,0.00,,BKN050,0.00,98.00,VWS V15.00,2013-12-29 20:55:00,
2013-12-29 16:00:00,80.6,73.5,29.91,South,169,9.0,11.0,79,0.00,,BKN050,0.00,125.00,VWS V15.00,2013-12-29 21:00:00,
2013-12-29 16:05:00,80.6,73.9,29.91,SSW,196,0.0,9.0,80,0.00,,BKN050,0.00,111.00,VWS V15.00,2013-12-29 21:05:00,
2013-12-29 16:10:00,80.6,73.5,29.91,SW,215,4.0,10.0,79,0.00,,BKN050,0.00,109.00,VWS V15.00,2013-12-29 21:10:00,
2013-12-29 16:15:00,80.5,73.4,29.91,South,187,2.0,12.0,79,0.00,,BKN050,0.00,97.00,VWS V15.00,2013-12-29 21:15:00,
2013-12-29 16:20:00,80.5,73.8,29.91,South,182,5.0,10.0,80,0.00,,BKN030,0.00,91.00,VWS V15.00,2013-12-29 21:20:00,
2013-12-29 16:25:00,80.5,73.8,29.91,SSW,196,2.0,7.0,80,0.00,,BKN030,0.00,58.00,VWS V15.00,2013-12-29 21:25:00,
2013-12-29 16:30:00,80.4,73.7,29.92,SSW,199,7.0,11.0,80,0.00,,BKN030,0.00,47.00,VWS V15.00,2013-12-29 21:30:00,
2013-12-29 16:35:00,80.2,73.5,29.92,SSW,197,9.0,11.0,80,0.00,,BKN030,0.00,60.00,VWS V15.00,2013-12-29 21:35:00,
2013-12-29 16:40:00,80.1,73.4,29.92,SW,218,3.0,16.0,80,0.00,,BKN030,0.00,62.00,VWS V15.00,2013-12-29 21:40:00,
2013-12-29 16:45:00,79.9,73.6,29.92,WSW,244,11.0,13.0,81,0.00,,BKN030,0.00,54.00,VWS V15.00,2013-12-29 21:45:00,
2013-12-29 16:50:00,79.8,73.4,29.92,SW,225,4.0,13.0,81,0.00,,BKN030,0.00,39.00,VWS V15.00,2013-12-29 21:50:00,
2013-12-29 16:55:00,79.8,73.8,29.92,SSW,205,5.0,9.0,82,0.00,,BKN030,0.00,33.00,VWS V15.00,2013-12-29 21:55:00,
2013-12-29 17:00:00,79.7,73.7,29.92,South,189,2.0,6.0,82,0.00,,BKN030,0.00,35.00,VWS V15.00,2013-12-29 22:00:00,
2013-12-29 17:05:00,79.6,73.6,29.91,South,176,1.0,10.0,82,0.00,,BKN050,0.00,32.00,VWS V15.00,2013-12-29 22:05:00,
2013-12-29 17:10:00,79.4,73.8,29.92,SSW,203,10.0,13.0,83,0.00,,BKN050,0.00,26.00,VWS V15.00,2013-12-29 22:10:00,
2013-12-29 17:15:00,77.5,73.0,29.92,South,175,3.0,7.0,86,0.00,,SCT030,0.00,0.00,VWS V15.00,2013-12-29 22:15:00,
2013-12-29 17:16:00,79.2,73.6,29.92,South,171,3.0,15.0,83,0.00,,BKN050,0.00,25.00,VWS V15.00,2013-12-29 22:16:00,
2013-12-29 17:20:00,77.4,72.9,29.92,SSW,211,5.0,9.0,86,0.00,,SCT030,0.00,0.00,VWS V15.00,2013-12-29 22:20:00,
2013-12-29 17:21:00,79.0,73.4,29.92,SW,226,1.0,11.0,83,0.00,,BKN050,0.00,21.00,VWS V15.00,2013-12-29 22:21:00,
2013-12-29 17:25:00,77.3,72.8,29.92,SSE,165,8.0,9.0,86,0.00,,SCT030,0.00,0.00,VWS V15.00,2013-12-29 22:25:00,
2013-12-29 17:26:00,78.9,73.3,29.92,SSW,204,5.0,7.0,83,0.00,,BKN050,0.00,16.00,VWS V15.00,2013-12-29 22:26:00,
2013-12-29 17:30:00,77.2,73.0,29.92,South,182,2.0,10.0,87,0.00,,SCT030,0.00,0.00,VWS V15.00,2013-12-29 22:30:00,
2013-12-29 17:31:00,78.7,73.1,29.92,SSE,160,6.0,13.0,83,0.00,,BKN050,0.00,9.00,VWS V15.00,2013-12-29 22:31:00,
2013-12-29 17:35:00,78.5,73.3,29.92,SSW,211,9.0,14.0,84,0.00,,BKN050,0.00,0.00,VWS V15.00,2013-12-29 22:35:00,
2013-12-29 17:40:00,77.2,73.0,29.93,South,182,4.0,11.0,87,0.00,,SCT030,0.00,0.00,VWS V15.00,2013-12-29 22:40:00,
2013-12-29 17:41:00,78.3,73.1,29.92,South,181,6.0,12.0,84,0.00,,BKN050,0.00,0.00,VWS V15.00,2013-12-29 22:41:00,
2013-12-29 17:45:00,77.2,73.4,29.93,South,190,0.0,10.0,88,0.00,,SCT030,0.00,0.00,VWS V15.00,2013-12-29 22:45:00,
2013-12-29 17:46:00,78.2,73.0,29.92,SSW,194,9.0,11.0,84,0.00,,BKN050,0.00,0.00,VWS V15.00,2013-12-29 22:46:00,
2013-12-29 17:50:00,77.2,73.4,29.93,SSW,204,3.0,9.0,88,0.00,,SCT030,0.00,0.00,VWS V15.00,2013-12-29 22:50:00,
2013-12-29 17:51:00,78.1,72.9,29.92,South,178,3.0,10.0,84,0.00,,BKN050,0.00,0.00,VWS V15.00,2013-12-29 22:51:00,
2013-12-29 17:55:00,77.1,73.3,29.93,SSW,206,2.0,10.0,88,0.00,,SCT030,0.00,0.00,VWS V15.00,2013-12-29 22:55:00,
2013-12-29 17:56:00,78.0,73.1,29.92,South,185,3.0,10.0,85,0.00,,SCT022CU,0.00,0.00,VWS V15.00,2013-12-29 22:56:00,
2013-12-29 18:00:00,77.0,73.2,29.93,SSW,194,2.0,10.0,88,0.00,,SCT030,0.00,0.00,VWS V15.00,2013-12-29 23:00:00,
2013-12-29 18:01:00,77.8,72.9,29.92,SW,221,3.0,8.0,85,0.00,,SCT022CU,0.00,0.00,VWS V15.00,2013-12-29 23:01:00,
2013-12-29 18:05:00,77.7,72.8,29.92,SSE,163,4.0,7.0,85,0.00,,SCT022CU,0.00,0.00,VWS V15.00,2013-12-29 23:05:00,
2013-12-29 18:10:00,77.6,73.1,29.92,SSE,153,5.0,7.0,86,0.00,,SCT022CU,0.00,0.00,VWS V15.00,2013-12-29 23:10:00,
2013-12-29 18:15:00,77.5,73.0,29.92,South,174,1.0,7.0,86,0.00,,SCT022CU,0.00,0.00,VWS V15.00,2013-12-29 23:15:00,
2013-12-29 18:20:00,77.4,72.9,29.92,SSW,194,4.0,9.0,86,0.00,,SCT022CU,0.00,0.00,VWS V15.00,2013-12-29 23:20:00,
2013-12-29 18:25:00,77.3,72.8,29.92,South,177,8.0,9.0,86,0.00,,SCT022CU,0.00,0.00,VWS V15.00,2013-12-29 23:25:00,
2013-12-29 18:30:00,77.2,73.0,29.92,SSE,157,4.0,10.0,87,0.00,,SCT022CU,0.00,0.00,VWS V15.00,2013-12-29 23:30:00,
2013-12-29 18:35:00,77.2,73.0,29.92,SSW,213,5.0,10.0,87,0.00,,SCT022CU,0.00,0.00,VWS V15.00,2013-12-29 23:35:00,
2013-12-29 18:40:00,77.2,73.0,29.93,SSW,211,5.0,11.0,87,0.00,,SCT022CU,0.00,0.00,VWS V15.00,2013-12-29 23:40:00,
2013-12-29 18:45:00,77.2,73.4,29.93,South,190,1.0,10.0,88,0.00,,SCT022CU,0.00,0.00,VWS V15.00,2013-12-29 23:45:00,
2013-12-29 18:50:00,77.2,73.4,29.93,South,173,0.0,9.0,88,0.00,,SCT022CU,0.00,0.00,VWS V15.00,2013-12-29 23:50:00,
2013-12-29 18:55:00,77.1,73.3,29.93,SSW,200,1.0,10.0,88,0.00,,SCT022CU,0.00,0.00,VWS V15.00,2013-12-29 23:55:00,
2013-12-29 19:00:00,77.0,73.2,29.93,South,182,5.0,10.0,88,0.00,,FEW022CU,0.00,0.00,VWS V15.00,2013-12-30 00:00:00,
2013-12-29 19:05:00,76.9,73.1,29.93,South,182,4.0,11.0,88,0.00,,FEW022CU,0.00,0.00,VWS V15.00,2013-12-30 00:05:00,
2013-12-29 19:10:00,76.8,73.3,29.93,SSW,200,2.0,7.0,89,0.00,,FEW022CU,0.00,0.00,VWS V15.00,2013-12-30 00:10:00,
2013-12-29 19:15:00,76.7,73.2,29.94,SSW,194,5.0,6.0,89,0.00,,FEW022CU,0.00,0.00,VWS V15.00,2013-12-30 00:15:00,
2013-12-29 19:20:00,76.6,73.1,29.94,SSE,163,2.0,6.0,89,0.00,,FEW022CU,0.00,0.00,VWS V15.00,2013-12-30 00:20:00,
2013-12-29 19:25:00,76.5,73.0,29.94,SSW,196,3.0,7.0,89,0.00,,FEW022CU,0.00,0.00,VWS V15.00,2013-12-30 00:25:00,
2013-12-29 19:30:00,76.4,73.2,29.95,SSW,202,1.0,7.0,90,0.00,,FEW022CU,0.00,0.00,VWS V15.00,2013-12-30 00:30:00,
2013-12-29 19:35:00,76.3,73.2,29.95,SSE,167,0.0,6.0,90,0.00,,FEW022CU,0.00,0.00,VWS V15.00,2013-12-30 00:35:00,
2013-12-29 19:40:00,76.2,73.1,29.95,SSE,158,3.0,5.0,90,0.00,,FEW022CU,0.00,0.00,VWS V15.00,2013-12-30 00:40:00,
2013-12-29 19:45:00,76.1,73.0,29.95,SSW,205,4.0,5.0,90,0.00,,FEW022CU,0.00,0.00,VWS V15.00,2013-12-30 00:45:00,
2013-12-29 19:50:00,76.0,72.9,29.95,South,188,2.0,9.0,90,0.00,,FEW022CU,0.00,0.00,VWS V15.00,2013-12-30 00:50:00,
2013-12-29 19:55:00,75.9,72.8,29.96,South,183,1.0,7.0,90,0.00,,FEW022CU,0.00,0.00,VWS V15.00,2013-12-30 00:55:00,
2013-12-29 20:00:00,75.8,73.0,29.96,South,188,0.0,7.0,91,0.00,,SCT017,0.00,0.00,VWS V15.00,2013-12-30 01:00:00,
2013-12-29 20:05:00,75.7,72.9,29.96,SSW,194,0.0,7.0,91,0.00,,SCT017,0.00,0.00,VWS V15.00,2013-12-30 01:05:00,
2013-12-29 20:10:00,75.6,72.8,29.96,SSW,201,0.0,3.0,91,0.00,,SCT017,0.00,0.00,VWS V15.00,2013-12-30 01:10:00,
2013-12-29 20:15:00,75.5,72.7,29.96,South,180,1.0,3.0,91,0.00,,SCT017,0.00,0.00,VWS V15.00,2013-12-30 01:15:00,
2013-12-29 20:20:00,75.4,72.6,29.96,SSW,202,1.0,4.0,91,0.00,,SCT017,0.00,0.00,VWS V15.00,2013-12-30 01:20:00,
2013-12-29 20:25:00,75.3,72.5,29.96,SSW,211,0.0,5.0,91,0.00,,SCT017,0.00,0.00,VWS V15.00,2013-12-30 01:25:00,
2013-12-29 20:30:00,75.2,72.4,29.96,SW,217,0.0,5.0,91,0.00,,SCT017,0.00,0.00,VWS V15.00,2013-12-30 01:30:00,
2013-12-29 20:35:00,75.2,72.4,29.96,SW,219,3.0,6.0,91,0.00,,SCT017,0.00,0.00,VWS V15.00,2013-12-30 01:35:00,
2013-12-29 20:40:00,75.1,72.6,29.96,SSW,206,0.0,3.0,92,0.00,,SCT017,0.00,0.00,VWS V15.00,2013-12-30 01:40:00,
2013-12-29 20:45:00,75.0,72.5,29.96,SSW,206,0.0,3.0,92,0.00,,SCT017,0.00,0.00,VWS V15.00,2013-12-30 01:45:00,
2013-12-29 20:50:00,74.9,72.4,29.96,SSW,205,0.0,2.0,92,0.00,,SCT017,0.00,0.00,VWS V15.00,2013-12-30 01:50:00,
2013-12-29 20:55:00,74.8,72.3,29.96,SSW,206,0.0,4.0,92,0.00,,SCT017,0.00,0.00,VWS V15.00,2013-12-30 01:55:00,
2013-12-29 21:00:00,74.8,72.3,29.97,SSW,207,1.0,4.0,92,0.00,,SCT017,0.00,0.00,VWS V15.00,2013-12-30 02:00:00,
2013-12-29 21:05:00,74.7,72.2,29.97,SSW,207,0.0,2.0,92,0.00,,FEW017,0.00,0.00,VWS V15.00,2013-12-30 02:05:00,
2013-12-29 21:10:00,74.6,72.1,29.97,SSW,207,1.0,3.0,92,0.00,,FEW017,0.00,0.00,VWS V15.00,2013-12-30 02:10:00,
2013-12-29 21:15:00,74.5,72.0,29.97,SSW,207,0.0,3.0,92,0.00,,FEW017,0.00,0.00,VWS V15.00,2013-12-30 02:15:00,
2013-12-29 21:20:00,74.4,71.9,29.97,SSW,207,1.0,2.0,92,0.00,,FEW017,0.00,0.00,VWS V15.00,2013-12-30 02:20:00,
2013-12-29 21:25:00,74.4,72.2,29.97,SSW,208,0.0,2.0,93,0.00,,FEW017,0.00,0.00,VWS V15.00,2013-12-30 02:25:00,
2013-12-29 21:30:00,74.3,72.2,29.97,SSW,207,0.0,3.0,93,0.00,,FEW017,0.00,0.00,VWS V15.00,2013-12-30 02:30:00,
2013-12-29 21:35:00,74.2,72.1,29.97,SSW,207,1.0,2.0,93,0.00,,FEW017,0.00,0.00,VWS V15.00,2013-12-30 02:35:00,
2013-12-29 21:40:00,74.2,72.1,29.97,SSW,207,0.0,1.0,93,0.00,,FEW017,0.00,0.00,VWS V15.00,2013-12-30 02:40:00,
2013-12-29 21:45:00,74.1,71.9,29.97,SSW,207,0.0,1.0,93,0.00,,FEW017,0.00,0.00,VWS V15.00,2013-12-30 02:45:00,
2013-12-29 21:50:00,74.1,71.9,29.97,SSW,208,0.0,0.0,93,0.00,,FEW017,0.00,0.00,VWS V15.00,2013-12-30 02:50:00,
2013-12-29 21:55:00,74.1,71.9,29.97,SSW,207,0.0,0.0,93,0.00,,FEW017,0.00,0.00,VWS V15.00,2013-12-30 02:55:00,
2013-12-29 22:00:00,74.1,71.9,29.97,SSW,208,0.0,0.0,93,0.00,,BKN035,0.00,0.00,VWS V15.00,2013-12-30 03:00:00,
2013-12-29 22:05:00,74.0,71.8,29.97,SSW,208,0.0,0.0,93,0.00,,BKN035,0.00,0.00,VWS V15.00,2013-12-30 03:05:00,
2013-12-29 22:10:00,74.0,71.8,29.97,SSW,207,0.0,0.0,93,0.00,,BKN035,0.00,0.00,VWS V15.00,2013-12-30 03:10:00,
2013-12-29 22:15:00,74.0,71.8,29.97,SSW,207,0.0,0.0,93,0.00,,BKN035,0.00,0.00,VWS V15.00,2013-12-30 03:15:00,
2013-12-29 22:20:00,74.1,71.9,29.97,SSW,207,0.0,0.0,93,0.00,,BKN035,0.00,0.00,VWS V15.00,2013-12-30 03:20:00,
2013-12-29 22:25:00,74.1,71.9,29.97,SSW,207,0.0,2.0,93,0.00,,BKN035,0.00,0.00,VWS V15.00,2013-12-30 03:25:00,
2013-12-29 22:30:00,74.1,71.9,29.97,SSW,207,0.0,2.0,93,0.00,,BKN035,0.00,0.00,VWS V15.00,2013-12-30 03:30:00,
2013-12-29 22:35:00,74.2,72.4,29.97,SSW,207,0.0,2.0,94,0.00,,BKN035,0.00,0.00,VWS V15.00,2013-12-30 03:35:00,
2013-12-29 22:40:00,74.3,72.5,29.97,SSW,208,0.0,2.0,94,0.00,,BKN035,0.00,0.00,VWS V15.00,2013-12-30 03:40:00,
2013-12-29 22:45:00,74.3,72.5,29.97,SSW,200,2.0,3.0,94,0.00,,BKN035,0.00,0.00,VWS V15.00,2013-12-30 03:45:00,
2013-12-29 22:50:00,74.2,72.4,29.97,South,182,0.0,3.0,94,0.00,,BKN035,0.00,0.00,VWS V15.00,2013-12-30 03:50:00,
2013-12-29 22:55:00,74.2,72.4,29.97,South,186,0.0,3.0,94,0.00,,FEW035,0.00,0.00,VWS V15.00,2013-12-30 03:55:00,
2013-12-29 23:00:00,74.2,72.4,29.97,South,186,0.0,4.0,94,0.00,,FEW035,0.00,0.00,VWS V15.00,2013-12-30 04:00:00,
2013-12-29 23:05:00,74.2,72.4,29.97,SSW,199,0.0,4.0,94,0.00,,FEW035,0.00,0.00,VWS V15.00,2013-12-30 04:05:00,
2013-12-29 23:10:00,74.1,72.3,29.97,SSW,210,1.0,5.0,94,0.00,,FEW035,0.00,0.00,VWS V15.00,2013-12-30 04:10:00,
2013-12-29 23:15:00,74.1,72.3,29.97,SSW,210,2.0,4.0,94,0.00,,FEW035,0.00,0.00,VWS V15.00,2013-12-30 04:15:00,
2013-12-29 23:20:00,74.1,72.3,29.98,SSW,205,1.0,5.0,94,0.00,,FEW035,0.00,0.00,VWS V15.00,2013-12-30 04:20:00,
2013-12-29 23:25:00,74.1,72.3,29.98,SSW,205,0.0,3.0,94,0.00,,FEW035,0.00,0.00,VWS V15.00,2013-12-30 04:25:00,
2013-12-29 23:30:00,74.1,72.3,29.98,SSW,205,3.0,6.0,94,0.00,,FEW035,0.00,0.00,VWS V15.00,2013-12-30 04:30:00,
2013-12-29 23:34:00,74.1,72.3,29.98,South,190,2.0,6.0,94,0.00,,FEW035,0.00,0.00,VWS V15.00,2013-12-30 04:34:00,
2013-12-29 23:35:00,73.5,72.0,29.97,SSW,207,0.0,3.0,95,0.00,,SCT030,0.00,0.00,VWS V15.00,2013-12-30 04:35:00,
2013-12-29 23:39:00,74.1,72.3,29.98,SW,232,2.0,6.0,94,0.00,,FEW035,0.00,0.00,VWS V15.00,2013-12-30 04:39:00,
2013-12-29 23:40:00,73.5,72.0,29.97,SSW,208,1.0,2.0,95,0.00,,SCT030,0.00,0.00,VWS V15.00,2013-12-30 04:40:00,
2013-12-29 23:44:00,74.1,72.3,29.98,SSW,210,0.0,5.0,94,0.00,,FEW035,0.00,0.00,VWS V15.00,2013-12-30 04:44:00,
2013-12-29 23:45:00,73.4,71.9,29.97,SSW,208,2.0,3.0,95,0.00,,SCT030,0.00,0.00,VWS V15.00,2013-12-30 04:45:00,
2013-12-29 23:49:00,74.0,72.2,29.98,SSW,192,1.0,5.0,94,0.00,,FEW035,0.00,0.00,VWS V15.00,2013-12-30 04:49:00,
2013-12-29 23:50:00,73.4,71.9,29.97,SSW,208,1.0,4.0,95,0.00,,SCT030,0.00,0.00,VWS V15.00,2013-12-30 04:50:00,
2013-12-29 23:54:00,73.9,72.4,29.98,SSW,195,0.0,3.0,95,0.00,,FEW035,0.00,0.00,VWS V15.00,2013-12-30 04:54:00,
2013-12-29 23:55:00,73.3,71.8,29.97,SSW,208,1.0,3.0,95,0.00,,SCT030,0.00,0.00,VWS V15.00,2013-12-30 04:55:00,
2013-12-29 23:59:00,73.9,72.4,29.97,SSW,193,0.0,3.0,95,0.00,,FEW035,0.00,0.00,VWS V15.00,2013-12-30 04:59:00,